map of TBT home
TBT - Airport
Location
City:  Tabatinga, Amazonas, Brazil
Name:Tabatinga International Airport
ICAO:SBTT
IATA:TBT

Details
Type:Airport (Aerodrome, Airfield)
Use:International (customs port of entry)
Latitude:415'20"S (-4.255668)
Longitude:6956'09"W (-69.935827)
Datum:WGS 1984
Elevation:279 ft (85 m)
Variation:8.98W (WMM2015 magnetic declination)
-0.16 annual change
Runways:1
Longest:7054 × 105 ft (2150 × 32 m), paved

Time
Time Zone:UTC-4
Local Time:

Weather
METAR:SBTT 212300Z 13004KT 9999 -RA NSC 24/22 Q1010
TAF:SBTT 220400Z 2206/2306 16005KT 9999 BKN007 TN23/2211Z TX32/2219Z
BECMG 2214/2216 SCT015
BECMG 2217/2219 SCT020 FEW025TCU PROB30 2220/2223 TS FEW020 FEW025CB
RMK PEN

Related Locations
Nearby:
Farthest:NTX: 12331 mi / 19845 km
Natuna Ranai, Natuna Island, RI, ID

Find:

   beyond  
but within

Other Information
Maps:
NOTAMs:
Links:
Sources:

  
flag of Brazil
flag of Amazonas
  

Sectional Chart

Flight Planning
at skyvector.com

Satellite Image

Google Maps Satellite view

 

Copyright © 2004-2017 Karl L. Swartz. All rights reserved.
The Great Circle Mapper name and logo are trademarks of the Great Circle Mapper.
All other trademarks mentioned herein belong to their respective owners.
Please see credits for attibutions and further copyright information.

  Follow gcmap on Facebook Follow gcmap on Twitter Follow gcmap on Google+ GCmap on LinkedIn

hCard Microformat

Geo Microformat